Location: Newark
(12.4436°N, 0.6167°W)
Time: 11:38:27
(UTC+00:00)

Vanguard 1 - Pass Details

Date: 12 December 2019
Orbit: 651 x 3833 km, 34.2° (Epoch: 25 January)

Event Time Altitude Azimuth Distance (km) Brightness Sun altitude
Rises 03:27:05 0° 256° (WSW) 7,035 - -38.9°
Reaches altitude 10° 03:31:33 10° 261° (W) 6,318 - -37.9°
Exits shadow 03:47:11 48° 298° (WNW) 4,513 12.8 -34.3°
Maximum altitude 03:53:09 55° 334° (NNW) 4,308 12.9 -32.9°
Drops below altitude 10° 04:14:07 10° 50° (NE) 6,097 14.4 -28.1°
Sets 04:18:23 0° 55° (NE) 6,782 14.8 -27.1°
